DLH38F EDDF-LFLL

Flight info

Callsign DLH38F
Flight time N/A
Altitude 31000
Route ANEKI2L/18 ANEKI Y163 HERBI Y164 MOPAN/N0428F330 DCT LUTIX DCT BENOT N869 MILPA
Aircraft A320/M-SDE3FGHIRWY/LB1

Departure

Time 2026-05-05 16:54
Airport Frankfurt Main Airport (EDDF)

Arrival

Time N/A
Airport Lyon Saint-Exupéry Airport (LFLL)
Time Latitude Longitude Altitude Speed Heading
2026-05-05 15:50 50.04416 8.56277 349 ft 0 kts 165°
2026-05-05 16:41 50.04436 8.56268 361 ft 4 kts 165°
2026-05-05 16:41 50.04462 8.56257 353 ft 3 kts 163°
2026-05-05 16:41 50.04480 8.56251 359 ft 4 kts 213°
2026-05-05 16:42 50.04491 8.56280 357 ft 3 kts 249°
2026-05-05 16:42 50.04485 8.56255 359 ft 4 kts 249°
2026-05-05 16:42 50.04476 8.56215 350 ft 4 kts 249°
2026-05-05 16:42 50.04466 8.56177 354 ft 4 kts 249°
2026-05-05 16:43 50.04457 8.56137 350 ft 4 kts 250°
2026-05-05 16:43 50.04451 8.56111 356 ft 0 kts 250°
2026-05-05 16:47 50.04447 8.56093 355 ft 7 kts 250°
2026-05-05 16:48 50.04394 8.56031 347 ft 11 kts 178°
2026-05-05 16:48 50.04323 8.56066 347 ft 10 kts 160°
2026-05-05 16:48 50.04268 8.56050 351 ft 8 kts 230°
2026-05-05 16:48 50.04242 8.55953 349 ft 15 kts 249°
2026-05-05 16:49 50.04202 8.55785 351 ft 18 kts 249°
2026-05-05 16:49 50.04155 8.55589 347 ft 22 kts 250°
2026-05-05 16:49 50.04100 8.55362 349 ft 23 kts 250°
2026-05-05 16:49 50.04045 8.55130 351 ft 23 kts 250°
2026-05-05 16:50 50.03988 8.54890 351 ft 24 kts 250°
2026-05-05 16:50 50.03930 8.54645 352 ft 24 kts 250°
2026-05-05 16:50 50.03869 8.54395 350 ft 25 kts 248°
2026-05-05 16:50 50.03786 8.54166 351 ft 25 kts 250°
2026-05-05 16:51 50.03726 8.53912 350 ft 25 kts 250°
2026-05-05 16:51 50.03667 8.53667 350 ft 20 kts 248°
2026-05-05 16:51 50.03617 8.53471 353 ft 20 kts 249°
2026-05-05 16:51 50.03566 8.53262 348 ft 21 kts 249°
2026-05-05 16:52 50.03515 8.53042 351 ft 22 kts 249°
2026-05-05 16:52 50.03457 8.52819 351 ft 23 kts 247°
2026-05-05 16:52 50.03401 8.52622 353 ft 11 kts 228°
2026-05-05 16:52 50.03336 8.52595 347 ft 6 kts 178°
2026-05-05 16:53 50.03298 8.52596 355 ft 5 kts 180°
2026-05-05 16:53 50.03233 8.52596 347 ft 24 kts 180°
2026-05-05 16:53 50.02795 8.52602 353 ft 97 kts 179°
2026-05-05 16:53 50.01916 8.52608 348 ft 153 kts 180°
2026-05-05 16:54 50.00818 8.52619 852 ft 158 kts 182°
2026-05-05 16:54 49.99737 8.52659 1568 ft 159 kts 181°
2026-05-05 16:54 49.98575 8.52734 2027 ft 178 kts 180°
2026-05-05 16:54 49.97265 8.52822 2385 ft 200 kts 180°
2026-05-05 16:55 49.96309 8.52887 2629 ft 213 kts 180°
2026-05-05 16:55 49.94845 8.52989 3199 ft 224 kts 180°
2026-05-05 16:55 49.93271 8.53103 3833 ft 229 kts 180°
2026-05-05 16:55 49.91668 8.53220 3971 ft 227 kts 179°
2026-05-05 16:56 49.90071 8.53333 4150 ft 236 kts 179°
2026-05-05 16:56 49.88422 8.53447 5049 ft 234 kts 179°
2026-05-05 16:56 49.86823 8.53558 6063 ft 232 kts 179°
2026-05-05 16:56 49.85190 8.53672 6956 ft 233 kts 178°
2026-05-05 16:57 49.83564 8.53784 7777 ft 235 kts 178°
2026-05-05 16:57 49.82017 8.53888 8559 ft 238 kts 178°
2026-05-05 16:57 49.80374 8.53998 9395 ft 241 kts 178°
2026-05-05 16:57 49.78687 8.54112 10190 ft 244 kts 178°
2026-05-05 16:58 49.76965 8.54005 10764 ft 257 kts 184°
2026-05-05 16:58 49.75164 8.53771 11056 ft 280 kts 185°
2026-05-05 16:58 49.73193 8.53504 11312 ft 303 kts 185°
2026-05-05 16:58 49.71026 8.53209 11689 ft 320 kts 185°
2026-05-05 16:59 49.68787 8.52906 12391 ft 325 kts 185°
2026-05-05 16:59 49.66516 8.52602 13144 ft 330 kts 184°
2026-05-05 16:59 49.64377 8.52318 13837 ft 333 kts 185°
2026-05-05 16:59 49.62043 8.52013 14513 ft 336 kts 185°
2026-05-05 17:00 49.59665 8.51706 15189 ft 340 kts 185°
2026-05-05 17:00 49.57270 8.51393 15865 ft 343 kts 185°
2026-05-05 17:00 49.54882 8.51081 16526 ft 346 kts 185°
2026-05-05 17:00 49.52590 8.50781 17150 ft 349 kts 185°
2026-05-05 17:01 49.50157 8.50461 17805 ft 353 kts 185°
2026-05-05 17:01 49.47704 8.50139 18401 ft 356 kts 185°
2026-05-05 17:01 49.45306 8.49825 18942 ft 359 kts 185°
2026-05-05 17:01 49.42806 8.49499 19503 ft 363 kts 185°
2026-05-05 17:02 49.40281 8.49170 20062 ft 366 kts 185°
2026-05-05 17:02 49.37730 8.48836 20637 ft 369 kts 185°
2026-05-05 17:02 49.35200 8.48503 21207 ft 371 kts 185°
2026-05-05 17:02 49.32612 8.48161 21778 ft 374 kts 185°
2026-05-05 17:03 49.30007 8.47818 22341 ft 377 kts 185°
2026-05-05 17:03 49.27791 8.47529 22817 ft 379 kts 185°
2026-05-05 17:03 49.25147 8.47182 23369 ft 382 kts 185°
2026-05-05 17:03 49.22523 8.46838 23820 ft 385 kts 185°
2026-05-05 17:04 49.19810 8.46483 24271 ft 388 kts 185°
2026-05-05 17:04 49.17149 8.46138 24700 ft 390 kts 185°
2026-05-05 17:04 49.14417 8.45787 25138 ft 392 kts 185°
2026-05-05 17:04 49.11686 8.45436 25574 ft 395 kts 184°
2026-05-05 17:05 49.09328 8.45132 25938 ft 396 kts 184°
2026-05-05 17:05 49.06580 8.44740 26354 ft 399 kts 187°
2026-05-05 17:05 49.03851 8.43886 26757 ft 401 kts 192°
2026-05-05 17:05 49.01119 8.42928 27149 ft 403 kts 192°
2026-05-05 17:06 48.98378 8.41968 27543 ft 406 kts 192°
2026-05-05 17:06 48.95670 8.41023 27911 ft 408 kts 192°
2026-05-05 17:06 48.93197 8.40161 28248 ft 410 kts 192°
2026-05-05 17:06 48.90406 8.39195 28634 ft 412 kts 192°
2026-05-05 17:07 48.87601 8.38230 29006 ft 414 kts 192°
2026-05-05 17:07 48.84794 8.37262 29361 ft 416 kts 192°
2026-05-05 17:07 48.81966 8.36284 29716 ft 418 kts 192°
2026-05-05 17:07 48.79115 8.35298 30037 ft 420 kts 192°
2026-05-05 17:08 48.76320 8.34318 30317 ft 422 kts 192°
2026-05-05 17:08 48.73517 8.33303 30602 ft 423 kts 193°
2026-05-05 17:08 48.70649 8.32246 30803 ft 424 kts 193°
2026-05-05 17:08 48.67888 8.31221 30833 ft 411 kts 193°
2026-05-05 17:09 48.65163 8.30212 30836 ft 398 kts 193°
2026-05-05 17:09 48.62492 8.29230 30836 ft 393 kts 193°
2026-05-05 17:09 48.57305 8.27339 30838 ft 391 kts 193°
2026-05-05 17:10 48.52032 8.25423 30837 ft 390 kts 192°
2026-05-05 17:10 48.46752 8.23526 30838 ft 390 kts 192°
2026-05-05 17:11 48.41472 8.21609 30838 ft 390 kts 193°
2026-05-05 17:11 48.36516 8.19784 30834 ft 390 kts 193°
2026-05-05 17:12 48.31289 8.17866 30838 ft 389 kts 193°
2026-05-05 17:12 48.26028 8.15950 30839 ft 389 kts 194°
2026-05-05 17:13 48.20996 8.12766 31004 ft 402 kts 205°
2026-05-05 17:13 48.18491 8.10897 31287 ft 404 kts 205°
2026-05-05 17:13 48.15974 8.09031 31675 ft 404 kts 205°
2026-05-05 17:14 48.13455 8.07176 32118 ft 403 kts 205°
2026-05-05 17:14 48.10945 8.05331 32596 ft 401 kts 205°
2026-05-05 17:14 48.08443 8.03489 32823 ft 401 kts 205°
2026-05-05 17:14 48.06103 8.01770 32851 ft 400 kts 205°
2026-05-05 17:15 48.01245 7.98204 32856 ft 399 kts 205°
2026-05-05 17:15 47.96271 7.94541 32855 ft 399 kts 205°
2026-05-05 17:16 47.91324 7.90908 32860 ft 395 kts 206°
2026-05-05 17:16 47.86512 7.87397 32866 ft 394 kts 206°
2026-05-05 17:17 47.81602 7.83822 32859 ft 394 kts 206°
2026-05-05 17:17 47.76787 7.80315 32863 ft 394 kts 206°
2026-05-05 17:18 47.71786 7.76677 32857 ft 393 kts 206°
2026-05-05 17:18 47.67117 7.73289 32858 ft 392 kts 206°
2026-05-05 17:19 47.62209 7.69749 32857 ft 392 kts 206°
2026-05-05 17:19 47.59727 7.67961 32486 ft 392 kts 206°
2026-05-05 17:19 47.57319 7.66224 31982 ft 388 kts 206°
2026-05-05 17:20 47.54905 7.64485 31517 ft 384 kts 206°
2026-05-05 17:20 47.52679 7.62883 31085 ft 380 kts 207°
2026-05-05 17:20 47.50316 7.61185 30642 ft 376 kts 206°
2026-05-05 17:20 47.47963 7.59498 30203 ft 372 kts 206°
2026-05-05 17:21 47.45644 7.57833 29742 ft 369 kts 206°
2026-05-05 17:21 47.43381 7.56211 29308 ft 364 kts 206°
2026-05-05 17:21 47.41117 7.54589 28885 ft 359 kts 206°
2026-05-05 17:22 47.36700 7.51428 28106 ft 350 kts 206°
2026-05-05 17:22 47.34610 7.49934 27745 ft 346 kts 207°
2026-05-05 17:22 47.32454 7.48395 27356 ft 342 kts 206°
2026-05-05 17:22 47.30327 7.46880 26990 ft 338 kts 206°
2026-05-05 17:23 47.28219 7.45379 26598 ft 335 kts 206°
2026-05-05 17:23 47.26349 7.44052 26250 ft 331 kts 206°
2026-05-05 17:23 47.24599 7.42814 25925 ft 328 kts 206°
2026-05-05 17:23 47.22580 7.41383 25540 ft 325 kts 206°
2026-05-05 17:24 47.21279 7.40459 25292 ft 323 kts 206°
2026-05-05 17:24 47.19892 7.39471 25027 ft 322 kts 206°
2026-05-05 17:24 47.18471 7.38449 24739 ft 320 kts 208°
2026-05-05 17:24 47.17119 7.37225 24417 ft 320 kts 216°
2026-05-05 17:25 47.15865 7.35683 24093 ft 320 kts 223°
2026-05-05 17:25 47.15167 7.34597 23897 ft 320 kts 228°
2026-05-05 17:25 47.13574 7.31652 23381 ft 320 kts 230°
2026-05-05 17:25 47.12204 7.29111 22894 ft 319 kts 230°
2026-05-05 17:26 47.11041 7.26965 22519 ft 317 kts 230°
2026-05-05 17:26 47.09670 7.24444 22075 ft 315 kts 230°
2026-05-05 17:26 47.08482 7.22265 21715 ft 313 kts 230°
2026-05-05 17:26 47.07238 7.19988 21330 ft 311 kts 230°
2026-05-05 17:27 47.05973 7.17668 20970 ft 311 kts 230°
2026-05-05 17:27 47.04839 7.15589 20884 ft 316 kts 230°
2026-05-05 17:27 47.03586 7.13293 20857 ft 320 kts 230°
2026-05-05 17:27 47.02668 7.11611 20783 ft 319 kts 230°
2026-05-05 17:28 47.01184 7.08895 20693 ft 319 kts 230°
2026-05-05 17:28 47.00003 7.06736 20634 ft 319 kts 230°
2026-05-05 17:28 46.98806 7.04549 20572 ft 319 kts 230°
2026-05-05 17:28 46.97573 7.02295 20508 ft 318 kts 230°
2026-05-05 17:29 46.96246 6.99872 20435 ft 318 kts 230°
2026-05-05 17:29 46.94864 6.97353 20361 ft 316 kts 230°
2026-05-05 17:29 46.93503 6.94878 20298 ft 316 kts 230°
2026-05-05 17:29 46.92268 6.92632 20279 ft 316 kts 230°
2026-05-05 17:30 46.90894 6.90132 20248 ft 316 kts 230°
2026-05-05 17:30 46.89520 6.87632 20227 ft 316 kts 230°
2026-05-05 17:30 46.89055 6.86787 20218 ft 316 kts 230°